TimeCDT,TemperatureF,Dew PointF,Humidity,Sea Level PressureIn,VisibilityMPH,Wind Direction,Wind SpeedMPH,Gust SpeedMPH,PrecipitationIn,Events,Conditions,WindDirDegrees,DateUTC
12:15 AM,61.9,55.6,80,29.91,10.0,NNW,5.8,-,N/A,,Mostly Cloudy,340,2013-06-30 05:15:00
12:35 AM,61.9,55.4,79,29.92,10.0,North,5.8,-,N/A,,Mostly Cloudy,360,2013-06-30 05:35:00
12:55 AM,62.2,54.9,77,29.92,10.0,North,8.1,-,N/A,,Scattered Clouds,360,2013-06-30 05:55:00
1:15 AM,61.7,54.9,78,29.92,10.0,North,6.9,-,N/A,,Scattered Clouds,360,2013-06-30 06:15:00
1:35 AM,61.3,54.7,79,29.92,10.0,North,4.6,-,N/A,,Scattered Clouds,350,2013-06-30 06:35:00
1:55 AM,60.3,54.7,82,29.92,10.0,NNW,5.8,-,N/A,,Clear,340,2013-06-30 06:55:00
2:15 AM,59.4,54.3,83,29.92,10.0,NW,5.8,-,N/A,,Clear,310,2013-06-30 07:15:00
2:35 AM,59.5,54.5,83,29.92,10.0,NW,6.9,-,N/A,,Clear,320,2013-06-30 07:35:00
2:55 AM,59.2,54.5,84,29.92,10.0,NNW,5.8,-,N/A,,Clear,330,2013-06-30 07:55:00
3:15 AM,59.0,54.5,85,29.92,10.0,NNW,6.9,-,N/A,,Clear,340,2013-06-30 08:15:00
3:35 AM,58.6,54.5,86,29.92,10.0,NW,6.9,-,N/A,,Clear,320,2013-06-30 08:35:00
3:55 AM,58.3,54.1,86,29.92,10.0,NNW,6.9,-,N/A,,Clear,340,2013-06-30 08:55:00
4:15 AM,58.1,54.0,86,29.93,10.0,NNW,5.8,-,N/A,,Clear,330,2013-06-30 09:15:00
4:35 AM,58.3,54.0,86,29.94,10.0,NNW,8.1,-,N/A,,Clear,340,2013-06-30 09:35:00
4:55 AM,57.9,53.6,86,29.95,10.0,NW,8.1,-,N/A,,Clear,310,2013-06-30 09:55:00
5:15 AM,58.1,53.6,85,29.96,10.0,NW,9.2,-,N/A,,Clear,320,2013-06-30 10:15:00
5:35 AM,57.7,53.6,86,29.97,10.0,NNW,6.9,-,N/A,,Clear,330,2013-06-30 10:35:00
5:55 AM,57.4,53.6,87,29.97,10.0,North,5.8,-,N/A,,Clear,350,2013-06-30 10:55:00
6:15 AM,57.2,53.4,87,29.98,10.0,NNW,6.9,-,N/A,,Clear,330,2013-06-30 11:15:00
6:35 AM,57.6,53.8,87,29.98,10.0,NNW,8.1,-,N/A,,Clear,330,2013-06-30 11:35:00
6:55 AM,58.8,54.3,85,29.98,10.0,NNW,9.2,-,N/A,,Clear,340,2013-06-30 11:55:00
7:15 AM,59.9,54.5,82,29.99,10.0,North,9.2,-,N/A,,Clear,350,2013-06-30 12:15:00
7:35 AM,60.8,54.9,81,29.99,10.0,North,9.2,-,N/A,,Clear,350,2013-06-30 12:35:00
7:55 AM,61.5,54.9,79,29.99,10.0,North,10.4,-,N/A,,Clear,350,2013-06-30 12:55:00
8:15 AM,62.6,55.2,77,30.00,10.0,North,8.1,-,N/A,,Clear,360,2013-06-30 13:15:00
8:35 AM,63.1,55.0,75,30.00,10.0,North,9.2,-,N/A,,Clear,360,2013-06-30 13:35:00
8:55 AM,63.5,55.4,75,30.00,10.0,North,5.8,-,N/A,,Clear,350,2013-06-30 13:55:00
9:15 AM,64.2,55.4,73,30.00,10.0,NNW,8.1,-,N/A,,Clear,330,2013-06-30 14:15:00
9:35 AM,64.6,56.1,74,30.01,10.0,NNW,9.2,-,N/A,,Clear,340,2013-06-30 14:35:00
9:55 AM,64.9,56.5,74,30.01,10.0,NNW,8.1,-,N/A,,Clear,340,2013-06-30 14:55:00
10:15 AM,66.6,56.5,70,30.01,10.0,NNW,9.2,-,N/A,,Clear,340,2013-06-30 15:15:00
10:35 AM,65.8,56.7,72,30.02,10.0,NNW,10.4,-,N/A,,Clear,340,2013-06-30 15:35:00
10:55 AM,68.4,57.2,67,30.03,10.0,NNW,10.4,-,N/A,,Clear,340,2013-06-30 15:55:00
11:15 AM,68.0,55.9,65,30.03,10.0,NNW,8.1,-,N/A,,Clear,340,2013-06-30 16:15:00
11:35 AM,70.0,56.3,62,30.03,10.0,North,11.5,17.3,N/A,,Clear,360,2013-06-30 16:35:00
11:55 AM,71.1,56.3,60,30.03,10.0,North,9.2,-,N/A,,Scattered Clouds,360,2013-06-30 16:55:00
12:15 PM,70.3,57.6,64,30.03,10.0,North,12.7,16.1,N/A,,Scattered Clouds,350,2013-06-30 17:15:00
12:35 PM,71.6,56.8,60,30.02,10.0,North,11.5,-,N/A,,Clear,10,2013-06-30 17:35:00
12:55 PM,71.1,56.7,60,30.03,10.0,NNW,10.4,-,N/A,,Clear,340,2013-06-30 17:55:00
1:15 PM,71.1,56.7,60,30.02,10.0,NNW,9.2,-,N/A,,Scattered Clouds,330,2013-06-30 18:15:00
1:35 PM,72.3,56.5,57,30.02,10.0,North,8.1,-,N/A,,Mostly Cloudy,350,2013-06-30 18:35:00
1:55 PM,74.1,55.9,53,30.01,10.0,North,12.7,17.3,N/A,,Mostly Cloudy,360,2013-06-30 18:55:00
2:15 PM,74.1,55.0,51,30.02,10.0,North,11.5,16.1,N/A,,Mostly Cloudy,360,2013-06-30 19:15:00
2:35 PM,77.2,54.3,45,30.02,10.0,NNE,12.7,17.3,N/A,,Mostly Cloudy,20,2013-06-30 19:35:00
2:55 PM,76.6,53.8,45,30.02,10.0,North,11.5,18.4,N/A,,Scattered Clouds,10,2013-06-30 19:55:00
3:15 PM,76.1,53.1,45,30.03,10.0,NNE,11.5,-,N/A,,Scattered Clouds,30,2013-06-30 20:15:00
3:35 PM,77.0,51.1,40,30.03,10.0,NNE,12.7,18.4,N/A,,Clear,20,2013-06-30 20:35:00
3:55 PM,77.5,48.2,35,30.02,10.0,NNE,16.1,-,N/A,,Clear,30,2013-06-30 20:55:00
4:15 PM,77.2,50.0,38,30.02,10.0,NE,15.0,18.4,N/A,,Clear,40,2013-06-30 21:15:00
4:35 PM,76.3,51.1,41,30.02,10.0,North,10.4,-,N/A,,Clear,360,2013-06-30 21:35:00
4:55 PM,76.8,51.1,40,30.02,10.0,NNE,10.4,-,N/A,,Clear,20,2013-06-30 21:55:00
5:15 PM,75.7,47.8,37,30.02,10.0,North,11.5,18.4,N/A,,Clear,10,2013-06-30 22:15:00
5:35 PM,76.1,50.0,40,30.02,10.0,North,9.2,-,N/A,,Scattered Clouds,10,2013-06-30 22:35:00
5:55 PM,75.9,49.5,39,30.02,10.0,North,11.5,-,N/A,,Scattered Clouds,10,2013-06-30 22:55:00
6:15 PM,75.2,48.7,39,30.03,10.0,NNE,11.5,16.1,N/A,,Clear,30,2013-06-30 23:15:00
6:35 PM,75.4,49.6,40,30.03,10.0,NNE,10.4,-,N/A,,Clear,30,2013-06-30 23:35:00
6:55 PM,74.5,49.1,41,30.03,10.0,NNE,8.1,-,N/A,,Clear,20,2013-06-30 23:55:00
7:15 PM,73.8,49.6,43,30.03,10.0,NNE,10.4,-,N/A,,Clear,20,2013-07-01 00:15:00
7:35 PM,72.9,50.4,45,30.04,10.0,North,8.1,-,N/A,,Clear,360,2013-07-01 00:35:00
7:55 PM,71.8,50.2,46,30.04,10.0,North,9.2,-,N/A,,Clear,360,2013-07-01 00:55:00
8:15 PM,70.2,49.8,48,30.04,10.0,North,8.1,-,N/A,,Clear,360,2013-07-01 01:15:00
8:35 PM,68.4,50.2,52,30.04,10.0,North,6.9,-,N/A,,Clear,360,2013-07-01 01:35:00
8:55 PM,67.1,49.6,53,30.05,10.0,North,6.9,-,N/A,,Clear,360,2013-07-01 01:55:00
9:15 PM,65.1,50.4,59,30.05,10.0,North,5.8,-,N/A,,Clear,360,2013-07-01 02:15:00
9:35 PM,64.4,50.0,59,30.06,10.0,North,6.9,-,N/A,,Clear,360,2013-07-01 02:35:00
9:55 PM,63.5,50.0,61,30.07,10.0,North,6.9,-,N/A,,Clear,360,2013-07-01 02:55:00
10:15 PM,62.8,50.0,63,30.08,10.0,North,5.8,-,N/A,,Clear,360,2013-07-01 03:15:00
10:35 PM,62.6,49.8,63,30.08,10.0,North,5.8,-,N/A,,Clear,360,2013-07-01 03:35:00
10:55 PM,61.7,50.0,65,30.08,10.0,North,5.8,-,N/A,,Clear,360,2013-07-01 03:55:00
11:15 PM,60.3,50.0,69,30.08,10.0,North,5.8,-,N/A,,Clear,350,2013-07-01 04:15:00
11:35 PM,61.0,49.5,66,30.08,10.0,NNW,6.9,-,N/A,,Clear,340,2013-07-01 04:35:00
11:55 PM,59.4,49.8,71,30.09,10.0,NNW,6.9,-,N/A,,Clear,340,2013-07-01 04:55:00